Location: Newark
(41.6500°N, 71.4833°W)
Time: 14:38:20
(UTC+00:00)

Transit 2A Rocket - Pass Details

Date: 31 January 2020
Orbit: 591 x 912 km, 66.7° (Epoch: 29 February)

Event Time Altitude Azimuth Distance (km) Brightness Sun altitude
Rises 08:14:57 0° 203° (SSW) 2,836 - -41.9°
Reaches altitude 10° 08:17:11 10° 201° (SSW) 1,922 - -41.5°
Maximum altitude 08:21:26 70° 118° (ESE) 632 - -40.7°
Drops below altitude 10° 08:25:45 10° 35° (NE) 1,946 - -40.0°
Exits shadow 08:27:01 - 33° (NNE) 2,462 8.1 -39.7°
Sets 08:28:02 0° 33° (NNE) 2,875 8.5 -39.5°
